Location: Lesignano de� Bagni
(44.6500°N, 10.3000°E)
Time: 11:20:14
(UTC+00:00)

COSMOS 2428 - Pass Details

Date: 03 March 2021
Orbit: 845 x 858 km, 70.9° (Epoch: 18 April)

Event Time Altitude Azimuth Distance (km) Brightness Sun altitude
Rises 19:16:03 0° 194° (SSW) 3,390 5.9 -23.2°
Reaches altitude 10° 19:18:30 10° 192° (SSW) 2,459 5.1 -23.6°
Maximum altitude 19:24:05 65° 111° (ESE) 926 2.6 -24.5°
Enters shadow 19:24:45 60° 74° (ENE) 965 2.7 -24.7°
Exits shadow 19:32:03 - 29° (NNE) 3,373 5.7 -25.9°
Sets 19:32:11 0° 29° (NNE) 3,421 5.8 -25.9°
